Home   Weather   Maraimalai Nagar   Past weeks

Flag for India Past Weather in Maraimalai Nagar, Tamil Nadu, India — Yesterday and Last 2 Weeks

Now
72 °F

Haze.


Feels Like: 74 °F
Forecast: 66 / 86 °F
Wind: No wind

Location: Madras / Minambakkam

Current Time: Jan 16, 2017 at 11:10:28 pm

Latest Report: Jan 16, 2017 at 10:30 pm


Visibility: 3 mi

Pressure: 29.92 "Hg

Humidity: 73%

Dew Point: 63 °F

Location of Maraimalai NagarLocation

Past Weather in Maraimalai Nagar — Graph

°F

Maraimalai Nagar Temperature Yesterday

Maximum temperature yesterday: 84 °F (at 12:30 pm)
Minimum temperature yesterday: 70 °F (at 7:00 am)
Average temperature yesterday: 77 °F

High & Low Weather Summary for the Past Weeks

 TemperatureHumidityPressure
High88 °F (Jan 2, 12:00 pm)94% (Jan 2, 2:30 am)29.98 "Hg (Jan 2, 2:30 am)
Low68 °F (Jan 4, 4:30 am)43% (Jan 3, 12:30 pm)29.74 "Hg (Jan 7, 2:30 pm)
Average77 °F73%29.85 "Hg
* Reported Jan 1 9:30 pm — Jan 16 10:00 pm, Maraimalai Nagar, Weather by CustomWeather, © 2017

Note: Actual official high and low records may vary slightly from our data, if they occured in-between our weather recording intervals... More about our weather records

Advertising

Maraimalai Nagar Weather History for the Previous 24 Hours

Scroll right to see more
 ConditionsComfort  
Time TempWeatherWind HumidityBarometerVisibility
10:00 pm
Mon, Jan 16
73 °FHaze.No wind69%29.92 "Hg3 mi
9:30 pm73 °FHaze.3 mph69%29.95 "Hg3 mi
9:00 pm73 °FHaze.3 mph69%29.92 "Hg3 mi
8:30 pm75 °FHaze.5 mph65%29.92 "Hg3 mi
8:00 pm75 °FHaze.5 mph69%29.92 "Hg3 mi
7:30 pm75 °FHaze.5 mph69%29.89 "Hg3 mi
7:00 pm75 °FHaze.6 mph69%29.89 "Hg3 mi
6:30 pm75 °FHaze.6 mph69%29.89 "Hg3 mi
6:00 pm77 °FClear.6 mph65%29.89 "Hg4 mi
5:30 pm79 °FClear.6 mph61%29.89 "Hg4 mi
5:00 pm81 °FPassing clouds.8 mph58%29.86 "Hg4 mi
4:30 pm81 °FPassing clouds.9 mph58%29.86 "Hg4 mi
4:00 pm82 °FPassing clouds.8 mph55%29.86 "Hg4 mi
3:30 pm82 °FScattered clouds.9 mph51%29.86 "Hg4 mi
3:00 pm82 °FScattered clouds.9 mph55%29.86 "Hg4 mi
2:30 pm82 °FScattered clouds.9 mph55%29.89 "Hg4 mi
2:00 pm82 °FScattered clouds.9 mph55%29.89 "Hg4 mi
1:30 pm82 °FScattered clouds.7 mph58%29.89 "Hg4 mi
1:00 pm82 °FScattered clouds.7 mph58%29.92 "Hg3 mi
12:30 pm82 °FScattered clouds.6 mph62%29.95 "Hg2 mi
12:00 pm82 °FScattered clouds.6 mph62%29.95 "Hg2 mi
11:30 am82 °FScattered clouds.5 mph62%29.95 "Hg2 mi
11:00 am81 °FScattered clouds.3 mph66%29.98 "Hg2 mi
10:30 am81 °FScattered clouds.3 mph66%29.98 "Hg2 mi
10:00 am81 °FScattered clouds.No wind66%29.98 "Hg2 mi
9:30 am79 °FScattered clouds.No wind70%29.98 "Hg2 mi
9:00 am75 °FFog.No wind83%29.98 "Hg1 mi
8:30 am73 °FFog.No wind83%29.98 "Hg1 mi
8:00 am70 °FFog.No wind94%29.98 "Hg1 mi
7:30 am70 °FFog.No wind88%29.95 "Hg1 mi
7:00 am70 °FFog.No wind88%29.95 "Hg1 mi
6:30 am70 °FFog.No wind94%29.92 "Hg1 mi
5:30 am70 °FFog.No wind94%29.89 "Hg2 mi
5:00 am70 °FFog.No wind94%29.89 "Hg2 mi
4:30 am72 °FFog.No wind88%29.89 "Hg2 mi
4:00 am72 °FFog.No wind88%29.89 "Hg2 mi
3:30 am72 °FHaze.No wind88%29.89 "Hg2 mi
3:00 am72 °FHaze.No wind88%29.89 "Hg2 mi
2:30 am73 °FHaze.No wind83%29.89 "Hg2 mi
2:00 am73 °FHaze.No wind78%29.92 "Hg3 mi
1:30 am73 °FHaze.No wind78%29.92 "Hg3 mi
1:00 am75 °FHaze.No wind74%29.92 "Hg3 mi
12:30 am75 °FHaze.3 mph74%29.92 "Hg3 mi
12:00 am75 °FHaze.3 mph74%29.92 "Hg3 mi
11:30 pm
Sun, Jan 15
75 °FHaze.3 mph74%29.92 "Hg3 mi
11:00 pm75 °FHaze.3 mph74%29.92 "Hg3 mi
Weather by CustomWeather, © 2017

See weather overviewHow to use our weather pages